Year,Month,Day,Hour,Minute,Value (Times are PST for windgust in km/hr)
2017,05,25,00,00,3.20
2017,05,25,00,01,1.60
2017,05,25,00,02,3.20
2017,05,25,00,03,3.20
2017,05,25,00,04,1.60
2017,05,25,00,07,3.20
2017,05,25,00,08,3.20
2017,05,25,00,09,3.20
2017,05,25,00,10,4.80
2017,05,25,00,11,3.20
2017,05,25,00,12,1.60
2017,05,25,02,00,6.40
2017,05,25,02,01,4.80
2017,05,25,02,02,6.40
2017,05,25,02,03,6.40
2017,05,25,02,04,6.40
2017,05,25,02,05,4.80
2017,05,25,02,06,3.20
2017,05,25,02,07,3.20
2017,05,25,02,08,3.20
2017,05,25,02,09,1.60
2017,05,25,02,12,1.60
2017,05,25,02,13,1.60
2017,05,25,02,14,1.60
2017,05,25,02,17,1.60
2017,05,25,02,18,1.60
2017,05,25,02,19,3.20
2017,05,25,02,20,3.20
2017,05,25,02,21,3.20
2017,05,25,02,22,4.80
2017,05,25,02,23,3.20
2017,05,25,02,24,3.20
2017,05,25,02,25,6.40
2017,05,25,02,26,6.40
2017,05,25,02,27,6.40
2017,05,25,02,28,6.40
2017,05,25,02,29,6.40
2017,05,25,02,30,4.80
2017,05,25,02,31,4.80
2017,05,25,02,32,4.80
2017,05,25,02,33,4.80
2017,05,25,02,34,4.80
2017,05,25,02,35,4.80
2017,05,25,02,36,4.80
2017,05,25,02,37,3.20
2017,05,25,02,38,3.20
2017,05,25,02,42,1.60
2017,05,25,02,43,1.60
2017,05,25,02,44,1.60
2017,05,25,02,45,1.60
2017,05,25,02,46,3.20
2017,05,25,02,47,3.20
2017,05,25,02,48,3.20
2017,05,25,02,49,3.20
2017,05,25,02,50,3.20
2017,05,25,02,52,1.60
2017,05,25,02,59,1.60
2017,05,25,03,00,4.80
2017,05,25,03,01,6.40
2017,05,25,03,02,4.80
2017,05,25,03,03,4.80
2017,05,25,03,04,6.40
2017,05,25,03,05,4.80
2017,05,25,03,06,4.80
2017,05,25,03,07,4.80
2017,05,25,03,08,4.80
2017,05,25,03,09,3.20
2017,05,25,03,10,3.20
2017,05,25,03,11,3.20
2017,05,25,03,12,3.20
2017,05,25,03,13,3.20
2017,05,25,03,14,4.80
2017,05,25,03,15,4.80
2017,05,25,03,16,6.40
2017,05,25,03,17,4.80
2017,05,25,03,18,4.80
2017,05,25,03,19,4.80
2017,05,25,03,20,3.20
2017,05,25,03,21,3.20
2017,05,25,03,22,1.60
2017,05,25,03,29,3.20
2017,05,25,03,30,4.80
2017,05,25,03,31,4.80
2017,05,25,03,32,4.80
2017,05,25,03,33,3.20
2017,05,25,03,34,3.20
2017,05,25,03,35,3.20
2017,05,25,03,36,6.40
2017,05,25,03,37,6.40
2017,05,25,03,38,4.80
2017,05,25,03,39,6.40
2017,05,25,03,40,4.80
2017,05,25,03,41,4.80
2017,05,25,03,42,4.80
2017,05,25,03,43,4.80
2017,05,25,03,44,4.80
2017,05,25,03,45,4.80
2017,05,25,03,46,3.20
2017,05,25,03,47,4.80
2017,05,25,03,48,4.80
2017,05,25,03,49,8.10
2017,05,25,03,50,8.10
2017,05,25,03,51,4.80
2017,05,25,03,52,4.80
2017,05,25,03,53,1.60
2017,05,25,03,54,3.20
2017,05,25,03,55,3.20
2017,05,25,03,56,1.60
2017,05,25,03,57,1.60
2017,05,25,04,01,1.60
2017,05,25,04,02,1.60
2017,05,25,04,06,3.20
2017,05,25,04,07,3.20
2017,05,25,04,08,1.60
2017,05,25,04,09,3.20
2017,05,25,04,10,4.80
2017,05,25,04,11,4.80
2017,05,25,04,12,3.20
2017,05,25,04,13,3.20
2017,05,25,04,14,3.20
2017,05,25,04,15,3.20
2017,05,25,04,16,3.20
2017,05,25,04,17,3.20
2017,05,25,04,18,3.20
2017,05,25,04,19,1.60
2017,05,25,04,20,1.60
2017,05,25,04,21,3.20
2017,05,25,04,22,4.80
2017,05,25,04,23,4.80
2017,05,25,04,24,3.20
2017,05,25,04,25,3.20
2017,05,25,04,26,3.20
2017,05,25,04,27,4.80
2017,05,25,04,28,3.20
2017,05,25,04,29,3.20
2017,05,25,04,30,1.60
2017,05,25,04,31,3.20
2017,05,25,04,32,3.20
2017,05,25,04,33,3.20
2017,05,25,04,34,3.20
2017,05,25,04,35,3.20
2017,05,25,04,36,3.20
2017,05,25,04,37,3.20
2017,05,25,04,38,3.20
2017,05,25,04,39,1.60
2017,05,25,04,40,3.20
2017,05,25,04,41,3.20
2017,05,25,04,42,3.20
2017,05,25,04,43,3.20
2017,05,25,04,44,3.20
2017,05,25,04,45,3.20
2017,05,25,04,46,4.80
2017,05,25,04,47,4.80
2017,05,25,04,48,3.20
2017,05,25,04,49,3.20
2017,05,25,04,50,3.20
2017,05,25,04,51,3.20
2017,05,25,04,52,3.20
2017,05,25,04,53,3.20
2017,05,25,04,54,3.20
2017,05,25,04,55,3.20
2017,05,25,04,56,4.80
2017,05,25,04,57,4.80
2017,05,25,04,58,4.80
2017,05,25,04,59,4.80
2017,05,25,05,00,4.80
2017,05,25,05,01,4.80
2017,05,25,05,02,4.80
2017,05,25,05,03,6.40
2017,05,25,05,04,4.80
2017,05,25,05,05,4.80
2017,05,25,05,06,3.20
2017,05,25,05,07,3.20
2017,05,25,05,08,1.60
2017,05,25,05,14,1.60
2017,05,25,05,21,1.60
2017,05,25,05,22,3.20
2017,05,25,05,23,3.20
2017,05,25,05,24,3.20
2017,05,25,05,25,1.60
2017,05,25,05,26,1.60
2017,05,25,05,27,4.80
2017,05,25,05,28,4.80
2017,05,25,05,29,1.60
2017,05,25,05,30,1.60
2017,05,25,06,04,6.40
2017,05,25,06,05,6.40
2017,05,25,06,06,4.80
2017,05,25,06,07,4.80
2017,05,25,06,08,3.20
2017,05,25,06,09,3.20
2017,05,25,06,10,3.20
2017,05,25,06,11,1.60
2017,05,25,06,13,3.20
2017,05,25,06,14,4.80
2017,05,25,06,15,3.20
2017,05,25,06,16,3.20
2017,05,25,06,17,1.60
2017,05,25,06,18,1.60
2017,05,25,06,24,3.20
2017,05,25,06,25,3.20
2017,05,25,06,26,4.80
2017,05,25,06,27,3.20
2017,05,25,06,28,1.60
2017,05,25,06,36,1.60
2017,05,25,06,54,1.60
2017,05,25,06,55,3.20
2017,05,25,06,56,1.60
2017,05,25,06,57,1.60
2017,05,25,07,00,3.20
2017,05,25,07,01,1.60
2017,05,25,07,05,1.60
2017,05,25,07,06,3.20
2017,05,25,07,07,3.20
2017,05,25,07,08,3.20
2017,05,25,07,09,3.20
2017,05,25,07,10,3.20
2017,05,25,07,11,1.60
2017,05,25,07,18,3.20
2017,05,25,07,19,3.20
2017,05,25,07,20,3.20
2017,05,25,07,21,3.20
2017,05,25,07,22,3.20
2017,05,25,07,23,3.20
2017,05,25,07,24,1.60
2017,05,25,07,25,1.60
2017,05,25,07,26,1.60
2017,05,25,07,31,3.20
2017,05,25,07,32,1.60
2017,05,25,07,35,1.60
2017,05,25,07,36,1.60
2017,05,25,07,37,3.20
2017,05,25,07,38,3.20
2017,05,25,07,39,4.80
2017,05,25,07,40,4.80
2017,05,25,07,41,4.80
2017,05,25,07,42,4.80
2017,05,25,07,43,1.60
2017,05,25,07,44,3.20
2017,05,25,07,45,3.20
2017,05,25,07,46,3.20
2017,05,25,07,47,1.60
2017,05,25,07,48,3.20
2017,05,25,07,49,3.20
2017,05,25,07,50,3.20
2017,05,25,07,51,4.80
2017,05,25,07,52,4.80
2017,05,25,07,53,4.80
2017,05,25,07,54,3.20
2017,05,25,07,55,3.20
2017,05,25,07,56,1.60
2017,05,25,08,02,4.80
2017,05,25,08,03,6.40
2017,05,25,08,04,8.10
2017,05,25,08,05,6.40
2017,05,25,08,06,4.80
2017,05,25,08,07,6.40
2017,05,25,08,08,6.40
2017,05,25,08,09,3.20
2017,05,25,08,10,6.40
2017,05,25,08,11,4.80
2017,05,25,08,12,1.60
2017,05,25,08,13,1.60
2017,05,25,08,14,9.60
2017,05,25,08,15,6.40
2017,05,25,08,16,4.80
2017,05,25,08,17,4.80
2017,05,25,08,18,4.80
2017,05,25,08,19,4.80
2017,05,25,08,20,4.80
2017,05,25,08,21,4.80
2017,05,25,08,22,4.80
2017,05,25,08,23,6.40
2017,05,25,08,24,6.40
2017,05,25,08,25,8.10
2017,05,25,08,26,11.30
2017,05,25,08,27,4.80
2017,05,25,08,28,3.20
2017,05,25,08,29,8.10
2017,05,25,08,30,8.10
2017,05,25,08,31,8.10
2017,05,25,08,32,4.80
2017,05,25,08,33,6.40
2017,05,25,08,34,12.90
2017,05,25,08,35,6.40
2017,05,25,08,36,16.10
2017,05,25,08,37,8.10
2017,05,25,08,38,11.30
2017,05,25,08,39,4.80
2017,05,25,08,40,14.50
2017,05,25,08,41,12.90
2017,05,25,08,42,17.70
2017,05,25,08,43,14.50
2017,05,25,08,44,22.50
2017,05,25,08,45,12.90
2017,05,25,08,46,14.50
2017,05,25,08,47,6.40
2017,05,25,08,48,9.60
2017,05,25,08,49,8.10
2017,05,25,08,50,16.10
2017,05,25,08,51,17.70
2017,05,25,08,52,12.90
2017,05,25,08,53,9.60
2017,05,25,08,54,14.50
2017,05,25,08,55,8.10
2017,05,25,08,56,14.50
2017,05,25,08,57,6.40
2017,05,25,08,58,9.60
2017,05,25,08,59,12.90
2017,05,25,09,00,9.60
2017,05,25,09,01,12.90
2017,05,25,09,02,14.50
2017,05,25,09,03,12.90
2017,05,25,09,04,14.50
2017,05,25,09,05,9.60
2017,05,25,09,06,11.30
2017,05,25,09,07,12.90
2017,05,25,09,08,11.30
2017,05,25,09,09,14.50
2017,05,25,09,10,17.70
2017,05,25,09,11,19.30
2017,05,25,09,12,12.90
2017,05,25,09,13,6.40
2017,05,25,09,14,20.90
2017,05,25,09,15,19.30
2017,05,25,09,16,8.10
2017,05,25,09,17,4.80
2017,05,25,09,18,14.50
2017,05,25,09,19,12.90
2017,05,25,09,20,17.70
2017,05,25,09,21,12.90
2017,05,25,09,22,17.70
2017,05,25,09,23,27.40
2017,05,25,09,24,19.30
2017,05,25,09,25,17.70
2017,05,25,09,26,24.20
2017,05,25,09,27,6.40
2017,05,25,09,28,4.80
2017,05,25,09,29,9.60
2017,05,25,09,30,6.40
2017,05,25,09,31,12.90
2017,05,25,09,32,8.10
2017,05,25,09,33,8.10
2017,05,25,09,34,12.90
2017,05,25,09,35,9.60
2017,05,25,09,36,9.60
2017,05,25,09,37,12.90
2017,05,25,09,38,9.60
2017,05,25,09,39,14.50
2017,05,25,09,40,11.30
2017,05,25,09,41,16.10
2017,05,25,09,42,9.60
2017,05,25,09,43,9.60
2017,05,25,09,44,6.40
2017,05,25,09,45,6.40
2017,05,25,09,46,9.60
2017,05,25,09,47,14.50
2017,05,25,09,48,17.70
2017,05,25,09,49,6.40
2017,05,25,09,50,12.90
2017,05,25,09,51,9.60
2017,05,25,09,52,12.90
2017,05,25,09,53,8.10
2017,05,25,09,54,9.60
2017,05,25,09,55,14.50
2017,05,25,09,56,14.50
2017,05,25,09,57,8.10
2017,05,25,09,58,8.10
2017,05,25,09,59,11.30
2017,05,25,10,00,11.30
2017,05,25,10,01,14.50
2017,05,25,10,02,12.90
2017,05,25,10,03,16.10
2017,05,25,10,04,11.30
2017,05,25,10,05,6.40
2017,05,25,10,06,9.60
2017,05,25,10,07,14.50
2017,05,25,10,08,8.10
2017,05,25,10,09,14.50
2017,05,25,10,10,11.30
2017,05,25,10,11,6.40
2017,05,25,10,12,11.30
2017,05,25,10,13,3.20
2017,05,25,10,14,12.90
2017,05,25,10,15,11.30
2017,05,25,10,16,11.30
2017,05,25,10,17,11.30
2017,05,25,10,18,16.10
2017,05,25,10,19,8.10
2017,05,25,10,20,11.30
2017,05,25,10,21,12.90
2017,05,25,10,22,16.10
2017,05,25,10,23,9.60
2017,05,25,10,24,12.90
2017,05,25,10,25,8.10
2017,05,25,10,26,8.10
2017,05,25,10,27,16.10
2017,05,25,10,28,11.30
2017,05,25,10,29,9.60
2017,05,25,10,30,8.10
2017,05,25,10,31,9.60
2017,05,25,10,32,8.10
2017,05,25,10,33,6.40
2017,05,25,10,34,8.10
2017,05,25,10,35,12.90
2017,05,25,10,36,4.80
2017,05,25,10,37,6.40
2017,05,25,10,38,8.10
2017,05,25,10,39,6.40
2017,05,25,10,40,14.50
2017,05,25,10,41,17.70
2017,05,25,10,42,16.10
2017,05,25,10,43,6.40
2017,05,25,10,44,16.10
2017,05,25,10,45,14.50
2017,05,25,10,46,19.30
2017,05,25,10,47,14.50
2017,05,25,10,48,11.30
2017,05,25,10,49,19.30
2017,05,25,10,50,14.50
2017,05,25,10,51,20.90
2017,05,25,10,52,17.70
2017,05,25,10,53,19.30
2017,05,25,10,54,12.90
2017,05,25,10,55,16.10
2017,05,25,10,56,12.90
2017,05,25,10,57,20.90
2017,05,25,10,58,11.30
2017,05,25,10,59,16.10
2017,05,25,11,00,14.50
2017,05,25,11,01,16.10
2017,05,25,11,02,9.60
2017,05,25,11,03,17.70
2017,05,25,11,04,19.30
2017,05,25,11,05,11.30
2017,05,25,11,06,12.90
2017,05,25,11,07,6.40
2017,05,25,11,08,14.50
2017,05,25,11,09,14.50
2017,05,25,11,10,9.60
2017,05,25,11,11,14.50
2017,05,25,11,12,11.30
2017,05,25,11,13,16.10
2017,05,25,11,14,14.50
2017,05,25,11,15,12.90
2017,05,25,11,16,11.30
2017,05,25,11,17,12.90
2017,05,25,11,18,14.50
2017,05,25,11,19,16.10
2017,05,25,11,20,12.90
2017,05,25,11,21,11.30
2017,05,25,11,22,4.80
2017,05,25,11,23,14.50
2017,05,25,11,24,16.10
2017,05,25,11,25,12.90
2017,05,25,11,26,6.40
2017,05,25,11,27,8.10
2017,05,25,11,28,14.50
2017,05,25,11,29,14.50
2017,05,25,11,30,16.10
2017,05,25,11,31,8.10
2017,05,25,11,32,8.10
2017,05,25,11,33,16.10
2017,05,25,11,34,16.10
2017,05,25,11,35,19.30
2017,05,25,11,36,16.10
2017,05,25,11,37,11.30
2017,05,25,11,38,19.30
2017,05,25,11,39,9.60
2017,05,25,11,40,20.90
2017,05,25,11,41,17.70
2017,05,25,11,42,16.10
2017,05,25,11,43,19.30
2017,05,25,11,44,19.30
2017,05,25,11,45,14.50
2017,05,25,11,46,14.50
2017,05,25,11,47,16.10
2017,05,25,11,48,8.10
2017,05,25,11,49,14.50
2017,05,25,11,50,17.70
2017,05,25,11,51,17.70
2017,05,25,11,52,16.10
2017,05,25,11,53,8.10
2017,05,25,11,54,9.60
2017,05,25,11,55,6.40
2017,05,25,11,56,4.80
2017,05,25,11,57,11.30
2017,05,25,11,58,14.50
2017,05,25,11,59,6.40
2017,05,25,12,00,11.30
2017,05,25,12,01,16.10
2017,05,25,12,02,14.50
2017,05,25,12,03,12.90
2017,05,25,12,04,17.70
2017,05,25,12,05,16.10
2017,05,25,12,06,14.50
2017,05,25,12,07,20.90
2017,05,25,12,08,16.10
2017,05,25,12,09,12.90
2017,05,25,12,10,12.90
2017,05,25,12,11,11.30
2017,05,25,12,12,14.50
2017,05,25,12,13,16.10
2017,05,25,12,14,17.70
2017,05,25,12,15,16.10
2017,05,25,12,16,19.30
2017,05,25,12,17,8.10
2017,05,25,12,18,16.10
2017,05,25,12,19,12.90
2017,05,25,12,20,20.90
2017,05,25,12,21,17.70
2017,05,25,12,22,12.90
2017,05,25,12,23,9.60
2017,05,25,12,24,8.10
2017,05,25,12,25,14.50
2017,05,25,12,26,9.60
2017,05,25,12,27,17.70
2017,05,25,12,28,19.30
2017,05,25,12,29,17.70
2017,05,25,12,30,17.70
2017,05,25,12,31,16.10
2017,05,25,12,32,8.10
2017,05,25,12,33,6.40
2017,05,25,12,34,11.30
2017,05,25,12,35,6.40
2017,05,25,12,36,8.10
2017,05,25,12,37,14.50
2017,05,25,12,38,16.10
2017,05,25,12,39,12.90
2017,05,25,12,40,8.10
2017,05,25,12,41,6.40
2017,05,25,12,42,12.90
2017,05,25,12,43,8.10
2017,05,25,12,44,12.90
2017,05,25,12,45,9.60
2017,05,25,12,46,16.10
2017,05,25,12,47,14.50
2017,05,25,12,48,6.40
2017,05,25,12,49,20.90
2017,05,25,12,50,17.70
2017,05,25,12,51,22.50
2017,05,25,12,52,20.90
2017,05,25,12,53,8.10
2017,05,25,12,54,4.80
2017,05,25,12,55,17.70
2017,05,25,12,56,17.70
2017,05,25,12,57,8.10
2017,05,25,12,58,14.50
2017,05,25,12,59,14.50
2017,05,25,13,00,11.30
2017,05,25,13,01,14.50
2017,05,25,13,02,9.60
2017,05,25,13,03,12.90
2017,05,25,13,04,8.10
2017,05,25,13,05,12.90
2017,05,25,13,06,16.10
2017,05,25,13,07,11.30
2017,05,25,13,08,12.90
2017,05,25,13,09,12.90
2017,05,25,13,10,12.90
2017,05,25,13,11,14.50
2017,05,25,13,12,14.50
2017,05,25,13,13,8.10
2017,05,25,13,14,19.30
2017,05,25,13,15,12.90
2017,05,25,13,16,8.10
2017,05,25,13,17,8.10
2017,05,25,13,18,6.40
2017,05,25,13,19,12.90
2017,05,25,13,20,8.10
2017,05,25,13,21,8.10
2017,05,25,13,22,17.70
2017,05,25,13,23,11.30
2017,05,25,13,24,4.80
2017,05,25,13,25,8.10
2017,05,25,13,26,12.90
2017,05,25,13,27,16.10
2017,05,25,13,28,12.90
2017,05,25,13,29,11.30
2017,05,25,13,30,11.30
2017,05,25,13,31,11.30
2017,05,25,13,32,6.40
2017,05,25,13,33,4.80
2017,05,25,13,34,8.10
2017,05,25,13,35,4.80
2017,05,25,13,36,17.70
2017,05,25,13,37,14.50
2017,05,25,13,38,12.90
2017,05,25,13,39,14.50
2017,05,25,13,40,9.60
2017,05,25,13,41,14.50
2017,05,25,13,42,12.90
2017,05,25,13,43,6.40
2017,05,25,13,44,12.90
2017,05,25,13,45,14.50
2017,05,25,13,46,11.30
2017,05,25,13,47,12.90
2017,05,25,13,48,9.60
2017,05,25,13,49,4.80
2017,05,25,13,50,8.10
2017,05,25,13,51,6.40
2017,05,25,13,52,9.60
2017,05,25,13,53,11.30
2017,05,25,13,54,19.30
2017,05,25,13,55,16.10
2017,05,25,13,56,12.90
2017,05,25,13,57,12.90
2017,05,25,13,58,9.60
2017,05,25,13,59,12.90
2017,05,25,14,00,17.70
2017,05,25,14,01,14.50
2017,05,25,14,02,12.90
2017,05,25,14,03,9.60
2017,05,25,14,04,16.10
2017,05,25,14,05,19.30
2017,05,25,14,06,20.90
2017,05,25,14,07,17.70
2017,05,25,14,08,9.60
2017,05,25,14,09,8.10
2017,05,25,14,10,8.10
2017,05,25,14,11,8.10
2017,05,25,14,12,11.30
2017,05,25,14,13,3.20
2017,05,25,14,14,12.90
2017,05,25,14,15,9.60
2017,05,25,14,16,8.10
2017,05,25,14,17,3.20
2017,05,25,14,18,9.60
2017,05,25,14,19,8.10
2017,05,25,14,20,4.80
2017,05,25,14,21,6.40
2017,05,25,14,22,6.40
2017,05,25,14,23,6.40
2017,05,25,14,24,9.60
2017,05,25,14,25,6.40
2017,05,25,14,26,6.40
2017,05,25,14,27,4.80
2017,05,25,14,28,4.80
2017,05,25,14,29,4.80
2017,05,25,14,30,4.80
2017,05,25,14,31,11.30
2017,05,25,14,32,3.20
2017,05,25,14,33,4.80
2017,05,25,14,34,6.40
2017,05,25,14,35,6.40
2017,05,25,14,36,8.10
2017,05,25,14,37,11.30
2017,05,25,14,38,8.10
2017,05,25,14,39,14.50
2017,05,25,14,40,4.80
2017,05,25,14,41,9.60
2017,05,25,14,42,11.30
2017,05,25,14,43,6.40
2017,05,25,14,44,6.40
2017,05,25,14,45,8.10
2017,05,25,14,46,6.40
2017,05,25,14,47,8.10
2017,05,25,14,48,9.60
2017,05,25,14,49,9.60
2017,05,25,14,50,14.50
2017,05,25,14,51,8.10
2017,05,25,14,52,8.10
2017,05,25,14,53,6.40
2017,05,25,14,54,6.40
2017,05,25,14,55,12.90
2017,05,25,14,56,8.10
2017,05,25,14,57,4.80
2017,05,25,14,58,8.10
2017,05,25,14,59,6.40
2017,05,25,15,00,8.10
2017,05,25,15,01,4.80
2017,05,25,15,02,6.40
2017,05,25,15,03,9.60
2017,05,25,15,04,8.10
2017,05,25,15,05,6.40
2017,05,25,15,06,14.50
2017,05,25,15,07,4.80
2017,05,25,15,08,8.10
2017,05,25,15,09,8.10
2017,05,25,15,10,6.40
2017,05,25,15,11,12.90
2017,05,25,15,12,6.40
2017,05,25,15,13,9.60
2017,05,25,15,14,8.10
2017,05,25,15,15,4.80
2017,05,25,15,16,9.60
2017,05,25,15,17,8.10
2017,05,25,15,18,6.40
2017,05,25,15,19,9.60
2017,05,25,15,20,12.90
2017,05,25,15,21,8.10
2017,05,25,15,22,6.40
2017,05,25,15,23,8.10
2017,05,25,15,24,9.60
2017,05,25,15,25,4.80
2017,05,25,15,26,6.40
2017,05,25,15,27,12.90
2017,05,25,15,28,6.40
2017,05,25,15,29,4.80
2017,05,25,15,30,6.40
2017,05,25,15,31,6.40
2017,05,25,15,32,4.80
2017,05,25,15,33,3.20
2017,05,25,15,34,4.80
2017,05,25,15,35,4.80
2017,05,25,15,36,1.60
2017,05,25,15,37,4.80
2017,05,25,15,38,6.40
2017,05,25,15,39,8.10
2017,05,25,15,40,11.30
2017,05,25,15,41,12.90
2017,05,25,15,42,8.10
2017,05,25,15,43,11.30
2017,05,25,15,44,8.10
2017,05,25,15,45,9.60
2017,05,25,15,46,6.40
2017,05,25,15,47,8.10
2017,05,25,15,48,9.60
2017,05,25,15,49,6.40
2017,05,25,15,50,11.30
2017,05,25,15,51,6.40
2017,05,25,15,52,3.20
2017,05,25,15,53,9.60
2017,05,25,15,54,11.30
2017,05,25,15,55,6.40
2017,05,25,15,56,9.60
2017,05,25,15,57,11.30
2017,05,25,15,58,9.60
2017,05,25,15,59,9.60
2017,05,25,16,00,8.10
2017,05,25,16,01,12.90
2017,05,25,16,02,11.30
2017,05,25,16,03,6.40
2017,05,25,16,04,11.30
2017,05,25,16,05,9.60
2017,05,25,16,06,6.40
2017,05,25,16,07,9.60
2017,05,25,16,08,6.40
2017,05,25,16,09,6.40
2017,05,25,16,10,6.40
2017,05,25,16,11,6.40
2017,05,25,16,12,8.10
2017,05,25,16,13,9.60
2017,05,25,16,14,9.60
2017,05,25,16,15,8.10
2017,05,25,16,16,3.20
2017,05,25,16,17,4.80
2017,05,25,16,18,8.10
2017,05,25,16,19,6.40
2017,05,25,16,20,11.30
2017,05,25,16,21,11.30
2017,05,25,16,22,6.40
2017,05,25,16,23,9.60
2017,05,25,16,24,6.40
2017,05,25,16,25,4.80
2017,05,25,16,26,6.40
2017,05,25,16,27,6.40
2017,05,25,16,28,11.30
2017,05,25,16,29,9.60
2017,05,25,16,30,12.90
2017,05,25,16,31,11.30
2017,05,25,16,32,11.30
2017,05,25,16,33,8.10
2017,05,25,16,34,9.60
2017,05,25,16,35,8.10
2017,05,25,16,36,11.30
2017,05,25,16,37,9.60
2017,05,25,16,38,14.50
2017,05,25,16,39,11.30
2017,05,25,16,40,8.10
2017,05,25,16,41,6.40
2017,05,25,16,42,11.30
2017,05,25,16,43,6.40
2017,05,25,16,44,9.60
2017,05,25,16,45,9.60
2017,05,25,16,46,6.40
2017,05,25,16,47,6.40
2017,05,25,16,48,6.40
2017,05,25,16,49,6.40
2017,05,25,16,50,8.10
2017,05,25,16,51,8.10
2017,05,25,16,52,8.10
2017,05,25,16,53,6.40
2017,05,25,16,54,4.80
2017,05,25,16,55,6.40
2017,05,25,16,56,4.80
2017,05,25,16,57,9.60
2017,05,25,16,58,6.40
2017,05,25,16,59,8.10
2017,05,25,17,00,4.80
2017,05,25,17,01,8.10
2017,05,25,17,02,8.10
2017,05,25,17,03,8.10
2017,05,25,17,04,9.60
2017,05,25,17,05,4.80
2017,05,25,17,06,9.60
2017,05,25,17,07,4.80
2017,05,25,17,08,6.40
2017,05,25,17,09,6.40
2017,05,25,17,10,6.40
2017,05,25,17,11,11.30
2017,05,25,17,12,8.10
2017,05,25,17,13,4.80
2017,05,25,17,14,6.40
2017,05,25,17,15,9.60
2017,05,25,17,16,6.40
2017,05,25,17,17,6.40
2017,05,25,17,18,8.10
2017,05,25,17,19,11.30
2017,05,25,17,20,9.60
2017,05,25,17,21,6.40
2017,05,25,17,22,9.60
2017,05,25,17,23,4.80
2017,05,25,17,24,6.40
2017,05,25,17,25,9.60
2017,05,25,17,26,6.40
2017,05,25,17,27,6.40
2017,05,25,17,28,9.60
2017,05,25,17,29,11.30
2017,05,25,17,30,9.60
2017,05,25,17,31,6.40
2017,05,25,17,32,9.60
2017,05,25,17,33,6.40
2017,05,25,17,34,11.30
2017,05,25,17,35,11.30
2017,05,25,17,36,9.60
2017,05,25,17,37,11.30
2017,05,25,17,38,8.10
2017,05,25,17,39,11.30
2017,05,25,17,40,4.80
2017,05,25,17,41,4.80
2017,05,25,17,42,4.80
2017,05,25,17,43,6.40
2017,05,25,17,44,6.40
2017,05,25,17,45,4.80
2017,05,25,17,46,3.20
2017,05,25,17,47,4.80
2017,05,25,17,48,4.80
2017,05,25,17,49,4.80
2017,05,25,17,50,3.20
2017,05,25,17,51,1.60
2017,05,25,17,52,3.20
2017,05,25,17,53,9.60
2017,05,25,17,54,8.10
2017,05,25,17,55,8.10
2017,05,25,17,56,6.40
2017,05,25,17,57,4.80
2017,05,25,17,58,4.80
2017,05,25,17,59,4.80
2017,05,25,18,00,9.60
2017,05,25,18,01,6.40
2017,05,25,18,02,9.60
2017,05,25,18,03,4.80
2017,05,25,18,04,4.80
2017,05,25,18,05,3.20
2017,05,25,18,06,6.40
2017,05,25,18,07,4.80
2017,05,25,18,08,8.10
2017,05,25,18,09,6.40
2017,05,25,18,10,4.80
2017,05,25,18,11,3.20
2017,05,25,18,12,3.20
2017,05,25,18,13,3.20
2017,05,25,18,14,1.60
2017,05,25,18,15,3.20
2017,05,25,18,16,4.80
2017,05,25,18,17,4.80
2017,05,25,18,18,4.80
2017,05,25,18,19,4.80
2017,05,25,18,20,3.20
2017,05,25,18,21,6.40
2017,05,25,18,22,4.80
2017,05,25,18,23,4.80
2017,05,25,18,24,4.80
2017,05,25,18,25,6.40
2017,05,25,18,26,8.10
2017,05,25,18,27,3.20
2017,05,25,18,28,1.60
2017,05,25,18,29,3.20
2017,05,25,18,30,3.20
2017,05,25,18,31,4.80
2017,05,25,18,32,6.40
2017,05,25,18,33,6.40
2017,05,25,18,34,3.20
2017,05,25,18,35,1.60
2017,05,25,18,36,1.60
2017,05,25,18,37,3.20
2017,05,25,18,38,6.40
2017,05,25,18,39,6.40
2017,05,25,18,40,4.80
2017,05,25,18,41,4.80
2017,05,25,18,42,4.80
2017,05,25,18,43,4.80
2017,05,25,18,44,6.40
2017,05,25,18,45,4.80
2017,05,25,18,46,4.80
2017,05,25,18,47,3.20
2017,05,25,18,48,1.60
2017,05,25,18,49,3.20
2017,05,25,18,50,3.20
2017,05,25,18,51,3.20
2017,05,25,18,52,1.60
2017,05,25,18,53,1.60
2017,05,25,18,54,3.20
2017,05,25,18,55,3.20
2017,05,25,18,56,3.20
2017,05,25,18,57,3.20
2017,05,25,18,58,3.20
2017,05,25,18,59,4.80
2017,05,25,19,00,3.20
2017,05,25,19,01,3.20
2017,05,25,19,02,3.20
2017,05,25,19,03,3.20
2017,05,25,19,04,1.60
2017,05,25,19,05,1.60
2017,05,25,19,07,3.20
2017,05,25,19,08,4.80
2017,05,25,19,09,3.20
2017,05,25,19,10,3.20
2017,05,25,19,11,3.20
2017,05,25,19,12,1.60
2017,05,25,19,13,3.20
2017,05,25,19,14,4.80
2017,05,25,19,15,3.20
2017,05,25,19,16,4.80
2017,05,25,19,17,3.20
2017,05,25,19,18,3.20
2017,05,25,19,19,3.20
2017,05,25,19,20,3.20
2017,05,25,19,21,4.80
2017,05,25,19,22,4.80
2017,05,25,19,23,3.20
2017,05,25,19,24,3.20
2017,05,25,19,25,3.20
2017,05,25,19,26,4.80
2017,05,25,19,27,4.80
2017,05,25,19,28,4.80
2017,05,25,19,29,4.80
2017,05,25,19,30,8.10
2017,05,25,19,31,6.40
2017,05,25,19,32,6.40
2017,05,25,19,33,8.10
2017,05,25,19,34,8.10
2017,05,25,19,35,6.40
2017,05,25,19,36,6.40
2017,05,25,19,37,6.40
2017,05,25,19,38,6.40
2017,05,25,19,39,6.40
2017,05,25,19,40,6.40
2017,05,25,19,41,6.40
2017,05,25,19,42,6.40
2017,05,25,19,43,3.20
2017,05,25,19,44,6.40
2017,05,25,19,45,6.40
2017,05,25,19,46,6.40
2017,05,25,19,47,6.40
2017,05,25,19,48,3.20
2017,05,25,19,49,3.20
2017,05,25,19,50,3.20
2017,05,25,19,51,6.40
2017,05,25,19,52,6.40
2017,05,25,19,53,8.10
2017,05,25,19,54,6.40
2017,05,25,19,55,6.40
2017,05,25,19,56,6.40
2017,05,25,19,57,6.40
2017,05,25,19,58,3.20
2017,05,25,19,59,3.20
2017,05,25,20,00,3.20
2017,05,25,20,01,3.20
2017,05,25,20,02,3.20
2017,05,25,20,03,1.60
2017,05,25,20,04,3.20
2017,05,25,20,05,3.20
2017,05,25,20,06,3.20
2017,05,25,20,07,6.40
2017,05,25,20,08,6.40
2017,05,25,20,09,6.40
2017,05,25,20,10,6.40
2017,05,25,20,11,6.40
2017,05,25,20,12,3.20
2017,05,25,20,13,3.20
2017,05,25,20,14,3.20
2017,05,25,20,15,3.20
2017,05,25,20,16,3.20
2017,05,25,20,17,3.20
2017,05,25,20,18,3.20
2017,05,25,20,19,6.40
2017,05,25,20,20,3.20
2017,05,25,20,21,6.40
2017,05,25,20,22,3.20
2017,05,25,20,23,3.20
2017,05,25,20,24,1.60
2017,05,25,20,27,1.60
2017,05,25,20,28,3.20
2017,05,25,20,29,6.40
2017,05,25,20,30,3.20
2017,05,25,20,31,6.40
2017,05,25,20,32,3.20
2017,05,25,20,33,3.20
2017,05,25,20,34,3.20
2017,05,25,20,35,3.20
2017,05,25,20,36,3.20
2017,05,25,20,37,1.60
2017,05,25,20,38,1.60
2017,05,25,20,39,3.20
2017,05,25,20,40,6.40
2017,05,25,20,41,6.40
2017,05,25,20,42,3.20
2017,05,25,20,43,3.20
2017,05,25,20,44,3.20
2017,05,25,20,45,3.20
2017,05,25,20,46,3.20
2017,05,25,20,47,1.60
2017,05,25,20,48,1.60
2017,05,25,20,49,1.60
2017,05,25,20,50,1.60
2017,05,25,20,51,3.20
2017,05,25,20,52,3.20
2017,05,25,20,53,1.60
2017,05,25,20,54,1.60
2017,05,25,20,55,1.60
2017,05,25,20,56,3.20
2017,05,25,20,57,3.20
2017,05,25,20,58,1.60
2017,05,25,20,59,1.60
2017,05,25,21,23,3.20
2017,05,25,21,24,3.20
2017,05,25,21,25,6.40
2017,05,25,21,26,6.40
2017,05,25,21,27,6.40
2017,05,25,21,28,6.40
2017,05,25,21,29,6.40
2017,05,25,21,30,6.40
2017,05,25,21,31,6.40
2017,05,25,21,32,3.20
2017,05,25,21,33,3.20
2017,05,25,21,34,6.40
2017,05,25,21,35,3.20
2017,05,25,21,36,1.60
2017,05,25,21,37,1.60
2017,05,25,21,41,3.20
2017,05,25,21,42,4.80
2017,05,25,21,43,4.80
2017,05,25,21,44,4.80
2017,05,25,21,45,4.80
2017,05,25,21,46,4.80
2017,05,25,21,47,4.80
2017,05,25,21,48,3.20
2017,05,25,21,49,4.80
2017,05,25,21,50,4.80
2017,05,25,21,51,3.20
2017,05,25,21,52,3.20
2017,05,25,21,53,3.20
2017,05,25,21,54,3.20
2017,05,25,21,55,3.20
2017,05,25,21,56,3.20
2017,05,25,21,58,4.80
2017,05,25,21,59,4.80
2017,05,25,22,00,4.80
2017,05,25,22,01,6.40
2017,05,25,22,02,6.40
2017,05,25,22,03,3.20
2017,05,25,22,04,3.20
2017,05,25,22,05,3.20
2017,05,25,22,06,3.20
2017,05,25,22,07,3.20
2017,05,25,22,08,3.20
2017,05,25,22,09,1.60
2017,05,25,22,10,1.60
2017,05,25,22,11,1.60
2017,05,25,22,12,3.20
2017,05,25,22,13,3.20
2017,05,25,22,14,3.20
2017,05,25,22,15,3.20